Regional Weather Roundup
Issued by NWS

Home | Current Version | Previous Version | Graphics & Text | Print | Product List | Glossary On
Versions: 1 2 3 4 5 6 7 8 9 10 11 12 13 14 15 16 17 18 19 20 21 22 23 24 25 26 27 28 29 30 31 32 33 34 35 36 37 38 39 40 41 42 43 44 45 46 47 48 49 50
000
ASUS43 KIND 302159
RWRIN

WEATHER ROUNDUP FOR INDIANA
NATIONAL WEATHER SERVICE INDIANAPOLIS IN
600 PM EDT MON MAY 30 2016

NOTE: "FAIR" INDICATES FEW OR NO CLOUDS BELOW 12,000 FEET WITH NO
SIGNIFICANT WEATHER AND/OR OBSTRUCTIONS TO VISIBILITY.

* - STATION DOES NOT REPORT WEATHER SUCH AS PRECIPITATION OR FOG.

+ - STATION NOT QUALITY CONTROLLED BY THE NATIONAL WEATHER SERVICE.
    USE DATA WITH CAUTION...ESPECIALLY DEWPOINT AND RELATIVE
    HUMIDITY OBSERVATIONS.

INZ001>003-010>013-019-020-302300-
NORTHWEST INDIANA

CITY           SKY/WX    TMP DP  RH WIND       PRES   REMARKS
GARY /AIRPORT/ MOSUNNY   82  64  54 E12       29.98S
RENSSELAER +   CLOUDY    88  45  22 N5        29.96F

$$

LMZ046-743>745-302300-
SOUTHERN LAKE MICHIGAN

STATION/POSITION TIME  TEMP    WIND        PRES    WAVE
                       AIR SEA DIR/SP/G            HT
                 (UTC) (F)     (DEG/KT/KT) (MB)    (FT)
BURNS HARBOR     2100   69      70/ 10/ 11 1015.6F
MICHIGAN CITY    2100   66      30/  8/  9   N/A
5NW MICH CITY    2110   66 63   60/  6/  6   N/A     1

$$

INZ004-005-014>016-021>024-302300-
NORTH CENTRAL INDIANA

CITY           SKY/WX    TMP DP  RH WIND       PRES   REMARKS
ELKHART        SUNNY     84  59  42 NW12      29.99S
GOSHEN         SUNNY     82  53  36 NW14      29.98S
SOUTH BEND     SUNNY     83  56  39 NW9       29.99S

$$

INZ006>009-017-018-025>027-302300-
NORTHEAST INDIANA

CITY           SKY/WX    TMP DP  RH WIND       PRES   REMARKS
ANGOLA *+        N/A     84  81  89 NW7       29.99S HX  98
FORT WAYNE     PTSUNNY   87  54  32 NW9       29.97F

$$

INZ028-029-035-036-043>045-051>053-302300-
WEST CENTRAL INDIANA

CITY           SKY/WX    TMP DP  RH WIND       PRES   REMARKS
CRAWFORDSVL +  MOSUNNY   84  52  33 SW3       29.99F
GREENCASTLE +  MOSUNNY   82  59  44 S3        30.01F
LAFAYETTE      MOSUNNY   85  54  34 SW7       29.96F
TERRE HAUTE    SUNNY     85  55  35 CALM      29.99F

$$

INZ030>032-037>040-046>048-054>057-064-065-302300-
CENTRAL INDIANA

CITY           SKY/WX    TMP DP  RH WIND       PRES   REMARKS
COLUMBUS       SUNNY     84  54  34 W3        30.00F
INDIANAPOLIS   PTSUNNY   84  55  36 W3        29.99F
-EAGLE CREEK   MOSUNNY   84  53  34 VRB5      29.99F
KOKOMO *+      SUNNY     88  54  31 W8        29.97S
SHELBYVILLE    MOSUNNY   87  53  31 VRB5      29.98F

$$

INZ033-034-041-042-049-050-058-059-302300-
EAST CENTRAL INDIANA

CITY           SKY/WX    TMP DP  RH WIND       PRES   REMARKS
MUNCIE         MOSUNNY   89  49  25 NW6       29.98F

$$

INZ060-061-067>069-081>083-085>088-302300-
SOUTHWEST INDIANA

CITY           SKY/WX    TMP DP  RH WIND       PRES   REMARKS
EVANSVILLE     SUNNY     87  57  35 N6        29.98F
HUNTINGBURG *+ SUNNY     84  61  45 NW5       29.99F

$$

INZ062-063-066-070>080-084-089>092-302300-
SOUTH CENTRAL AND SOUTHEAST INDIANA

CITY           SKY/WX    TMP DP  RH WIND       PRES   REMARKS
BLOOMINGTON    SUNNY     84  56  38 SW5       30.01F
MADISON *+     SUNNY     86  45  23 NW6       30.02F
SEYMOUR +      MOSUNNY   88  59  37 CALM      29.99F

$$





USA.gov is the U.S. government's official web portal to all federal, state and local government web resources and services.